Weather History for Hamilton, OH

Change the Weather History Date:

Saturday, November 3, 2012

  Actual Average (KCVG) Record (KCVG)
Temperature  
Mean Temperature 35 °F 50 °F  
Max Temperature 44 °F 60 °F 81 °F (1946)
Min Temperature 26 °F 40 °F 12 °F (1951)
Degree Days  
Heating Degree Days 30 15  
Month to date heating degree days 44  
Since 1 July heating degree days 406  
Cooling Degree Days 0 0  
Month to date cooling degree days 0  
Year to date cooling degree days 1121  
Moisture  
Dew Point 32 °F    
Average Humidity 86    
Maximum Humidity 96    
Minimum Humidity 71    
Precipitation  
Precipitation 0.06 in 0.11 in 2.26 in (2011)
Month to date precipitation 0.35  
Year to date precipitation 36.07  
Snow  
Snow 0.00 in 0.00 in 0.50 in (1966)
Month to date snowfall 0.0  
Since 1 July snowfall 0.4  
Since 1 September snowfall 0.4  
Snow Depth -    
Sea Level Pressure  
Sea Level Pressure 30.16 in    
Wind  
Wind Speed 2 mph (NNE)    
Max Wind Speed 7 mph    
Max Gust Speed -    
Visibility 10 miles    
Events Rain    
T = Trace of Precipitation, MM = Missing Value Source: NWS Daily Summary

Daily Weather History Graph

Daily Weather History Graph

Search for Another Location

Airport:

Trip Planner

Search our weather history database for the weather conditions in past years. The results will help you decide how hot, cold, wet, or windy it might be!

Date:

Astronomy

Nov. 03, 2012 Rise Set
Actual Time 8:08 AM EDT 6:33 PM EDT
Civil Twilight 7:40 AM EDT 7:01 PM EDT
Nautical Twilight 7:09 AM EDT 7:33 PM EDT
Astronomical Twilight 6:37 AM EDT 8:05 PM EDT
Moon 10:14 PM EDT (11/3) 12:11 PM EDT (11/3)
Length of Visible Light 11h 21m
Length of Day
10h 25m
Waning Gibbous, 80% of the Moon is Illuminated
Nov 3
Waning Gibbous
Nov 6
Last Quarter
Nov 13
New
Nov 20
First Quarter
Nov 28
Full

Hourly Weather History & Observations

Time (EDT) Temp. Windchill Dew Point Humidity Pressure Visibility Wind Dir Wind Speed Gust Speed Precip Events Conditions
12:53 AM 28.9 °F - 27.0 °F 92% 30.13 in 10.0 mi Calm Calm - N/A   Clear
1:53 AM 28.0 °F - 25.0 °F 88% 30.13 in 10.0 mi Calm Calm - N/A   Clear
2:53 AM 28.0 °F - 25.0 °F 88% 30.14 in 10.0 mi Calm Calm - N/A   Clear
3:53 AM 27.0 °F - 24.1 °F 89% 30.14 in 8.0 mi Calm Calm - N/A   Clear
4:53 AM 27.0 °F - 24.1 °F 89% 30.15 in 9.0 mi Calm Calm - N/A   Clear
5:53 AM 26.1 °F - 23.0 °F 88% 30.17 in 10.0 mi Calm Calm - N/A   Clear
6:53 AM 26.1 °F - 23.0 °F 88% 30.18 in 10.0 mi Calm Calm - N/A   Clear
7:53 AM 26.1 °F - 23.0 °F 88% 30.18 in 10.0 mi Calm Calm - N/A   Clear
8:53 AM 28.9 °F - 28.0 °F 96% 30.22 in 8.0 mi Calm Calm - N/A   Clear
9:53 AM 36.0 °F - 33.1 °F 89% 30.23 in 10.0 mi Calm Calm - N/A   Clear
10:53 AM 37.9 °F 32.7 °F 33.1 °F 83% 30.19 in 10.0 mi East 6.9 mph - N/A   Overcast
11:53 AM 41.0 °F 39.0 °F 36.0 °F 82% 30.17 in 10.0 mi NE 3.5 mph - 0.00 in   Overcast
12:53 PM 43.0 °F 39.5 °F 37.0 °F 80% 30.23 in 10.0 mi WNW 5.8 mph - 0.00 in   Overcast
1:53 PM 44.1 °F - 35.1 °F 71% 30.17 in 10.0 mi Calm Calm - 0.00 in   Overcast
2:53 PM 42.1 °F 40.2 °F 36.0 °F 79% 30.13 in 6.0 mi ENE 3.5 mph - 0.04 in Rain Light Rain
3:53 PM 43.0 °F 39.5 °F 37.9 °F 82% 30.14 in 10.0 mi NNE 5.8 mph - 0.01 in   Overcast
4:53 PM 42.1 °F 39.2 °F 37.9 °F 85% 30.16 in 10.0 mi North 4.6 mph - 0.01 in   Overcast
5:53 PM 42.1 °F 38.4 °F 37.9 °F 85% 30.14 in 10.0 mi NNE 5.8 mph - 0.00 in   Overcast
6:53 PM 41.0 °F 37.1 °F 37.0 °F 86% 30.16 in 10.0 mi North 5.8 mph - N/A   Overcast
7:53 PM 41.0 °F 39.0 °F 37.9 °F 89% 30.16 in 10.0 mi North 3.5 mph - N/A   Overcast
8:53 PM 41.0 °F 37.1 °F 37.0 °F 86% 30.17 in 10.0 mi North 5.8 mph - N/A   Overcast
9:53 PM 41.0 °F 39.0 °F 37.0 °F 86% 30.15 in 10.0 mi North 3.5 mph - N/A   Overcast
10:53 PM 41.0 °F 39.0 °F 37.0 °F 86% 30.15 in 10.0 mi NNE 3.5 mph - N/A   Overcast
11:53 PM 41.0 °F 39.0 °F 37.0 °F 86% 30.15 in 10.0 mi North 3.5 mph - N/A   Overcast